Overview Statistics Trail Chart Weather Telemetry Raw packets
 

This is the latest recevied weather packets stored in our database for station/object KF7SOJ. If no packets are shown the sender has not sent any weather packets the latest 10 day(s).

<< 64 65 66 67 68 69 70 >>
Time Temp. Humidity Pressure Rain* Wind** Luminosity Snow
1788164864 14.44° C 44% 931.4 hPa 0 mm - 0 W/m² -
1788164560 14.44° C 44% 931.4 hPa 0 mm - 0 W/m² -
1788164255 15° C 43% 931.4 hPa 0 mm - 0 W/m² -
1788163951 15° C 42% 931.4 hPa 0 mm - 0 W/m² -
1788163646 15° C 42% 931.3 hPa 0 mm - 0 W/m² -
1788163346 15.56° C 42% 931.4 hPa 0 mm - 0 W/m² -
1788163042 15.56° C 41% 931.1 hPa 0 mm - 0 W/m² -
1788162737 15.56° C 42% 931.3 hPa 0 mm - 0 W/m² -
1788162437 15.56° C 42% 931.1 hPa 0 mm - 0 W/m² -
1788162139 15.56° C 41% 931.1 hPa 0 mm - 0 W/m² -
1788161826 15.56° C 42% 931 hPa 0 mm - 0 W/m² -
1788161525 15.56° C 41% 931.3 hPa 0 mm - 0 W/m² -
1788161220 15.56° C 41% 931 hPa 0 mm - 0 W/m² -
1788160917 15.56° C 42% 930.9 hPa 0 mm - 0 W/m² -
1788160616 15.56° C 41% 930.9 hPa 0 mm - 0 W/m² -
1788160311 16.11° C 40% 931 hPa 0 mm - 0 W/m² -
1788160010 16.11° C 40% 930.9 hPa 0 mm - 0 W/m² -
1788159705 16.11° C 40% 930.8 hPa 0 mm - 0 W/m² -
1788159404 16.11° C 40% 930.8 hPa 0 mm - 0 W/m² -
1788159103 16.67° C 38% 930.8 hPa 0 mm - 0 W/m² -
1788158798 16.67° C 38% 930.7 hPa 0 mm - 0 W/m² -
1788158493 16.11° C 38% 930.8 hPa 0 mm - 0 W/m² -
1788158189 16.11° C 41% 930.7 hPa 0 mm - 0 W/m² -
1788157885 16.11° C 39% 930.7 hPa 0 mm - 0 W/m² -
1788157585 16.11° C 41% 930.7 hPa 0 mm - 0 W/m² -

* Rain latest hour (hover to see other rain measurements)
** Current wind speed in m/s (hover to see current wind gust speed)